Regional Weather Roundup
Issued by NWS Jackson, KY

Home | Current Version | Previous Version | Text Only | Print | Product List | Glossary Off
Versions: 1 2 3 4 5 6 7 8 9 10 11 12 13 14 15 16 17 18 19 20 21 22 23 24 25 26 27 28 29 30 31 32 33 34 35 36 37 38 39 40 41 42 43 44 45 46 47 48

000
ASUS43 KJKL 251910
RWRJKL

EAST KENTUCKY HOURLY WEATHER ROUNDUP
NATIONAL WEATHER SERVICE JACKSON KY
300 PM EDT SAT APR 25 2015

NOTE: "FAIR" INDICATES FEW OR NO CLOUDS BELOW 12,000 FEET WITH
NO SIGNIFICANT WEATHER AND/OR OBSTRUCTIONS TO VISIBILITY.

* THESE REPORTS ARE NOT UNDER NWS QUALITY CONTROL AND MAY NOT
  REPORT WEATHER SUCH AS PRECIPITATION AND FOG.

KYZ079-080-083-085-087-088-110-112-115-119-120-252000
...EASTERN KENTUCKY...

CITY           SKY/WX    TMP DP  RH WIND       PRES   REMARKS
JACKSON        CLOUDY    59  54  83 VRB3      29.60F
LONDON         PTSUNNY   73  55  53 S14       29.59F
SOMERSET*      PTSUNNY   70  57  64 S9        29.57F
MONTICELLO*    SUNNY     76  60  57 SW15      29.59F
MIDDLESBORO*   CLOUDY    65  56  74 SE9       29.65F
HARLAN APT*    CLOUDY    68  54  60 SW5       29.64F
HAZARD APT*    PTCLDY    70  57  64 SW8       29.59F
BLACK MTN*       N/A     54  52  94 S5          N/A
PIKEVILLE APT* CLOUDY    55  50  82 SE5       29.63F
BIG SANDY*     CLOUDY    55  53  93 E6        29.63F
MOREHEAD APT*  LGT RAIN  50  48  93 E8        29.63F
$$

KYZ035-036-041-042-044-050-067-078-099-252000
...CENTRAL KENTUCKY...

CITY           SKY/WX    TMP DP  RH WIND       PRES   REMARKS
MT STERLING*   CLOUDY    52  52 100 E6        29.62F
FLEMING/MASON* DRIZZLE   48  46  93 E9        29.63F
DANVILLE*      CLOUDY    72  59  64 SW14G25   29.55F
RICHMOND*      PTSUNNY   70  57  64 SW12G20   29.55F
LEXINGTON      CLOUDY    58  55  90 E8        29.57F
FRANKFORT      CLOUDY    55  52  89 MISG      29.57F
$$

KYZ091>093-OHZ055-061-077-WVZ005-015-034-035-042-252000
...SOUTHERN OHIO/WEST VIRGINIA...

CITY           SKY/WX    TMP DP  RH WIND       PRES   REMARKS
COVINGTON      HVY RAIN  47  45  93 NE15      29.63F FOG
COLUMBUS       LGT RAIN  44  38  79 E9        29.72F
DAYTON         RAIN      42  40  92 E17       29.67F FOG
WILMINGTON     LGT RAIN  40  36  86 E14G22    29.67F FOG     WCI  32
HUNTINGTON     LGT RAIN  48  48 100 E7        29.65F FOG
CHARLESTON     LGT RAIN  49  47  93 NE6       29.69F FOG
PINEVILLE*     CLOUDY    48  48  97 MISG      29.73F
BECKLEY        LGT RAIN  42  39  89 SE12      29.70F FOG
BLUEFIELD      CLOUDY    47  40  76 MISG      29.72F
$$

VAZ002-007-008-TNZ017-027-036-066-071-252000
...SOUTHWEST VIRGINIA/EAST TENNESSEE...

CITY           SKY/WX    TMP DP  RH WIND       PRES   REMARKS
WISE*          CLOUDY    61  50  67 SW16G23   29.68F
JONESVILLE*    CLOUDY    64  54  68 W7        29.68F
ABINGDON*      CLOUDY    60  47  62 E7        29.69F
BRISTOL        PTSUNNY   70  52  52 CALM      29.65F
KNOXVILLE      CLOUDY    71  59  65 SW8       29.66F
OAK RIDGE      CLOUDY    65  57  75 VRB5      29.68F
CROSSVILLE     MOSUNNY   74  60  61 SW8       29.65F
NASHVILLE      PTSUNNY   79  62  56 SW15G22   29.59F
$$

...KEY TO REMARKS...
VSB - VISIBILITY IN MILES
WCI - WIND CHILL INDEX
HX  - HEAT INDEX

$$


USA.gov is the U.S. government's official web portal to all federal, state and local government web resources and services.